Voltar ao catálogo

STARLINK-35657

AtivoComunicaçõesVLEO
NORAD 66399·PAYLOAD·🇺🇸 United States

Lançado Nov 8, 2025 de Cape Canaveral Space Force Station

Loading…

Próximas Passagens (próximas 24 horas)

TLE

AtualizadoSource: CelesTrak SupGP

Época: Sep 14, 2026, 22:57 UTC

1 66399C 25257V   26257.95673611  .00022310  00000+0  66045-3 0  2572
2 66399  53.1578  53.9157 0000988  86.0422  44.9199 15.34317428    16

Acompanhe STARLINK-35657 em tempo real com AllMySat

Download on the App Store